Location: Berg
(47.2344°N, 9.5296°E)
Time: 23:01:06
(UTC+00:00)

USA 229 - Pass Details

Date: 24 January 2021
Orbit: 964 x 1248 km, 63.4° (Epoch: 03 March)

Event Time Altitude Azimuth Distance (km) Brightness Sun altitude
Rises 16:41:03 0° 317° (NW) 3,896 6.9 -5.3°
Reaches altitude 10° 16:43:55 10° 326° (NW) 2,981 6.2 -5.7°
Maximum altitude 16:50:29 38° 33° (NNE) 1,717 4.4 -6.8°
Drops below altitude 10° 16:57:25 10° 99° (E) 3,151 5.6 -7.9°
Enters shadow 16:59:56 - 106° (ESE) 3,952 6.2 -8.3°
